This is the latest recevied weather packets stored in our database for station/object N3WMC. If no packets are shown the sender has not sent any weather packets the latest 1 day(s).
| Time | Temp. | Humidity | Pressure | Rain* | Wind** | Luminosity | Snow |
|---|---|---|---|---|---|---|---|
| 1836274680 | 18.33° C | 87% | 1021.2 hPa | 0 mm | 0 m/s | 0 W/m² | - |
| 1836274532 | 17.78° C | 88% | 1021.4 hPa | 0 mm | 0 m/s | 0 W/m² | - |
| 1836274377 | 18.33° C | 87% | 1021 hPa | 0 mm | 0 m/s | 0 W/m² | - |
| 1836274230 | 18.33° C | 87% | 1021 hPa | 0 mm | 0 m/s | 0 W/m² | - |
| 1836274076 | 18.33° C | 87% | 1021 hPa | 0 mm | 0 m/s | 0 W/m² | - |
| 1778049214 | 14.44° C | 95% | 1008.6 hPa | 1.78 mm | 0 m/s | 0 W/m² | - |
| 1778048912 | 14.44° C | 95% | 1008.6 hPa | 1.78 mm | 0 m/s | 0 W/m² | - |
| 1778048609 | 14.44° C | 95% | 1008.6 hPa | 1.78 mm | 0 m/s | 0 W/m² | - |
| 1778048305 | 14.44° C | 95% | 1008.7 hPa | 1.27 mm | 0 m/s | 0 W/m² | - |
| 1778048002 | 15° C | 94% | 1008.6 hPa | 1.27 mm | 0 m/s | 0 W/m² | - |
| 1778047700 | 15° C | 94% | 1008.5 hPa | 0 mm | 0 m/s | 0 W/m² | - |
| 1778047398 | 15° C | 94% | 1008.5 hPa | 0 mm | 0 m/s | 0 W/m² | - |
| 1778047094 | 15° C | 94% | 1008.8 hPa | 1.78 mm | 0 m/s | 0 W/m² | - |
| 1778046791 | 15° C | 93% | 1008.9 hPa | 1.78 mm | 0 m/s | 0 W/m² | - |
| 1778046488 | 15° C | 93% | 1008.9 hPa | 0 mm | 0 m/s | 0 W/m² | - |
| 1778046185 | 15° C | 92% | 1009.1 hPa | 1.27 mm | 0.45 m/s, 343° | 0 W/m² | - |
| 1778045881 | 15° C | 92% | 1009 hPa | 3.05 mm | 0 m/s | 0 W/m² | - |
| 1778045581 | 15° C | 91% | 1009.1 hPa | 1.78 mm | 0 m/s | 0 W/m² | - |
| 1778045278 | 15° C | 91% | 1009.3 hPa | 1.27 mm | 0 m/s | 0 W/m² | - |
| 1778044976 | 15° C | 89% | 1009.3 hPa | 1.27 mm | 0 m/s | 0 W/m² | - |
| 1778044673 | 15.56° C | 88% | 1009.3 hPa | 1.78 mm | 0 m/s | 0 W/m² | - |
| 1778044369 | 15.56° C | 87% | 1009.5 hPa | 1.78 mm | 0 m/s | 0 W/m² | - |
| 1778044067 | 16.11° C | 85% | 1009.7 hPa | 1.78 mm | 0.45 m/s, 330° | 0 W/m² | - |
| 1778043765 | 16.11° C | 83% | 1009.9 hPa | 0 mm | 0.89 m/s, 348° | 0 W/m² | - |
| 1778043461 | 16.11° C | 82% | 1009.5 hPa | 0 mm | 0.45 m/s, 357° | 0 W/m² | - |
* Rain latest hour (hover to see other rain measurements)
** Current wind speed in m/s (hover to see current wind gust speed)